www.pogodaiklimat.ru

Погода и климат >> Архив погоды >> Индия >> Jagdalpur


ПОГОДА в Jagdalpur

  • Прогноз погоды в Jagdalpur
  • Монитор погоды в Jagdalpur
  • Климат города

АРХИВ ПОГОДЫ в Jagdalpur

Время (UTC), дата Ветер
(напр.,м/с)
 
Видим.   Явления Облачность Т
(С)
Тd
(С)
f
(%)
Тe
(С)
Тes
(С)
Комфортность P
(гПа)
Po
(гПа)
Тmin
(С)
Tmax
(С)
R
(мм)
S
(см)
15 14.02 штиль 0 4000 м ясно +22.6 +13.3 56 +26 +26 жарко 1018.7 956.7
18 14.02 штиль 0 4000 м ясно +19.0 +12.5 66 +20 +20 1020.5 957.5
21 14.02 штиль 0 4000 м ясно +16.8 +11.9 73 +17 +17 1019.5 956.2
00 15.02 штиль 0 4000 м ясно +15.0 +11.4 79 +15 +15 1020.6 956.9
03 15.02 штиль 0 2000 м мгла ясно +19.4 +11.8 61 +20 +28 1021.9 959.0 +13.3
06 15.02 СВ 2 4000 м ясно +28.0 +9.8 32 +28 +44 жарко 1020.0 958.8
09 15.02 ЮВ 1 4000 м ясно +31.0 +11.1 29 +31 +43 жарко 1015.7 955.4
12 15.02 СВ 1 4000 м ясно +28.6 +10.7 33 +29 +29 жарко 1015.5 954.9 +31.5
15 15.02 штиль 0 4000 м ясно +22.4 +10.6 47 +24 +24 комфорт 1018.9 956.9
18 15.02 штиль 0 4000 м ясно +19.0 +10.9 59 +20 +20 1020.3 957.3
21 15.02 штиль 0 4000 м ясно +17.0 +13.4 79 +17 +17 1019.2 955.9
00 16.02 штиль 0 4000 м ясно +14.2 +10.2 77 +14 +14 1019.1 955.4
03 16.02 штиль 0 2000 м мгла ясно +18.6 +10.9 61 +19 +26 1020.3 957.3 +12.8
06 16.02 штиль 0 4000 м ясно +29.0 +9.4 29 +29 +50 жарко 1017.5 956.8
09 16.02 штиль 0 4000 м ясно +32.0 +9.2 24 +31 +45 жарко 1012.3 952.4
12 16.02 штиль 0 4000 м ясно +30.0 +13.2 36 +31 +31 жарко 1012.0 951.8 +32.8
15 16.02 штиль 0 4000 м ясно +24.4 +11.1 43 +26 +26 жарко 1015.7 954.3
18 16.02 штиль 0 4000 м ясно +19.0 +11.7 63 +20 +20 1017.2 954.5
21 16.02 штиль 0 4000 м ясно +16.4 +10.7 69 +16 +16 1016.7 953.5
00 17.02 штиль 0 4000 м ясно +14.8 +11.2 79 +15 +15 1017.9 954.3
03 17.02 штиль 0 4000 м мгла ясно +21.0 +10.5 51 +23 +30 комфорт 1018.5 956.1 +12.6
06 17.02 СВ 1 4000 м ясно +28.4 +7.9 28 +28 +47 жарко 1016.6 955.9
09 17.02 СВ 2 4000 м ясно +31.6 +7.4 22 +30 +40 жарко 1012.2 952.3
12 17.02 СВ 1 4000 м ясно +29.8 +6.5 23 +29 +29 жарко 1011.3 951.1 +32.3
15 17.02 штиль 0 4000 м ясно +23.0 +12.2 51 +26 +26 жарко 1015.0 953.1
18 17.02 штиль 0 4000 м ясно +20.4 +11.0 55 +22 +22 комфорт 1016.9 954.6
21 17.02 штиль 0 4000 м ясно +17.8 +11.1 65 +18 +18 1016.7 953.8
00 18.02 штиль 0 4000 м ясно +14.0 +8.3 68 +14 +14 1017.4 953.5
03 18.02 штиль 0 4000 м ясно +21.0 +10.9 52 +23 +30 комфорт 1018.6 956.2 +10.9
06 18.02 С 1 4000 м ясно +28.8 +8.6 28 +28 +47 жарко 1016.2 955.5
09 18.02 С 2 4000 м ясно +32.4 +12.3 29 +33 +43 жарко 1011.7 952.1
12 18.02 штиль 0 4000 м ясно +31.2 +11.9 31 +32 +32 жарко 1011.2 951.3 +33.6
15 18.02 С 1 4000 м ясно +23.6 +11.5 47 +25 +25 комфорт 1015.1 953.5
18 18.02 С 1 4000 м ясно +19.0 +10.5 58 +21 +21 комфорт 1016.9 954.2
21 18.02 штиль 0 4000 м ясно +17.0 +10.2 64 +17 +17 1016.4 953.2
00 19.02 штиль 0 4000 м ясно +14.8 +9.9 72 +15 +15 1016.8 953.2
03 19.02 штиль 0 2000 м мгла ясно +19.8 +11.9 60 +21 +29 комфорт 1017.6 955.0 +13.4
06 19.02 штиль 0 4000 м ясно +29.6 +13.9 38 +31 +53 опасность
солнечного
удара
1014.7 954.3
09 19.02 СЗ 1 4000 м ясно +33.0 +16.1 36 +36 +48 очень
душно
1009.9 950.4
12 19.02 СЗ 1 4000 м ясно +31.6 +9.6 26 +31 +31 жарко 1009.0 949.3 +34.2
15 19.02 штиль 0 4000 м ясно +24.0 +9.2 39 +25 +25 комфорт 1012.3 950.9
18 19.02 штиль 0 4000 м ясно +19.4 +9.6 53 +20 +20 1013.7 951.3
21 19.02 штиль 0 4000 м ясно +17.2 +10.0 63 +17 +17 1012.8 950.1
00 20.02 штиль 0 4000 м ясно +13.4 +9.3 76 +13 +13 1013.5 949.7
03 20.02 штиль 0 2000 м мгла ясно +20.6 +11.7 57 +22 +30 комфорт 1013.5 951.3 +12.5
06 20.02 СЗ 1 4000 м ясно +30.6 +7.9 24 +30 +49 жарко 1011.1 951.0
09 20.02 СЗ 1 4000 м ясно +33.8 +4.3 16 +31 +43 жарко 1006.7 947.5
12 20.02 С 1 4000 м ясно +31.6 +8.3 24 +31 +31 жарко 1005.8 946.3 +34.1
15 20.02 штиль 0 4000 м ясно +23.6 +10.0 42 +25 +25 комфорт 1010.1 948.7
18 20.02 штиль 0 4000 м ясно +18.8 +8.1 50 +19 +19 1011.3 948.9
21 20.02 штиль 0 4000 м ясно +15.8 +9.6 67 +16 +16 1010.6 947.6
00 21.02 штиль 0 4000 м ясно +14.4 +8.8 69 +14 +14 1011.0 947.8
03 21.02 штиль 0 2000 м мгла ясно +22.0 +9.2 44 +23 +31 комфорт 1011.7 949.9 +13.0
06 21.02 штиль 0 4000 м ясно +32.6 +11.2 27 +32 +55 опасность
солнечного
удара
1009.6 950.1
09 21.02 Ю 1 4000 м ясно +35.4 +18.8 38 +40 +52 опасность
солнечного
удара
1005.8 947.0

 

Местоположение метеостанции Jagdalpur (Chhattisgarh, Индия): широта 19.08 долгота 82.03 высота над уровнем моря 553 м.

В архиве по умолчанию представлена погода в Jagdalpur за последнюю неделю. Архивные данные за месяц целиком и за предыдущие месяцы, начиная с января 2011 года, Вы можете получить, выбрав интересующий диапазон дат из раскрывающегося списка и нажав кнопку "Ввод!".

Внимание! Время в таблицах - всемирное. Для получения местного времени необходимо прибавить поправку, которая в Jagdalpur равна 5.5 ч.

Смотрите также архив погоды в соседних городах и на ближайших метеорологических станциях:

Погода в Koraput (Orissa, Индия) (78 км)
Погода в Bhawanipatna (Orissa, Индия) (153 км)
Погода в Titlagarh (Orissa, Индия) (190 км)
Погода в Visakhapatnam (Andhra Pradesh, Индия) (197 км)
Погода в Bhadrachalam (Telangana, Индия) (198 км)
Погода в Tuni (Andhra Pradesh, Индия) (200 км)
Погода в Visakhapatnam Walt (Andhra Pradesh, Индия) (204 км)
Погода в Kalingapatam (Andhra Pradesh, Индия) (236 км)
Погода в Kakinada (Andhra Pradesh, Индия) (238 км)
Погода в Raipur (Chhattisgarh, Индия) (242 км)

Пояснения к столбцам:

Ветер - указаны скорость ветра в м/с - средняя за 10 мин, порывы в срок и между сроками (в фигурных скобках) и направление, откуда дует ветер: С - северный, СВ - северо-восточный, В - восточный, ЮВ - юго-восточный, Ю - южный, ЮЗ - юго-западный, З - западный, СЗ - северо-западный.
Видимость - горизонтальная дальность видимости в метрах или километрах. При видимости от 1 до 10 км при отсутствии осадков обычно наблюдается дымка, при ухудшении видимости до 1 км и менее - туман. В сухую погоду видимость может ухудшаться дымом, пылью или мглою.
Явления - указаны атмосферные явления, наблюдавшиеся в срок или в последний час перед сроком; фигурными скобками обозначены явления, наблюдавшиеся между сроками (за 1-3 часа до срока); квадратными скобками обозначены град или гололедные отложения с указанием их диаметра в мм.
Облачность - указаны через наклонную черту общая и нижняя облачность в баллах и высота нижней границы облаков в метрах; квадратными скобками обозначены формы облаков: Ci - перистые, Cs - перисто-слоистые, Cc - перисто-кучевые, Ac - высококучевые, As - высокослоистые, Sc - слоисто-кучевые, Ns - слоисто-дождевые, Cu - кучевые, Cb - кучево-дождевые. Подробнее классификацию облаков см. в Атласе облаков (PDF).
T - Температура воздуха - температура, измеренная на высоте 2 м над землей.
Td - Температура точки росы - температура, при понижении до которой содержащийся в воздухе водяной пар достигнет насыщения.
f - Относительная влажность воздуха - влажноcть воздуха, измеренная на высоте 2 м над землей.
Te - Эффективная температура - температура, которую ощущает одетый по сезону человек в тени. Характеристика душности погоды. При расчете учитывается влияние влажности воздуха и скорости ветра на теплоощущения человека.
Tes - Эффективная температура на солнце - температура, которую ощущает человек, с поправкой на солнечный нагрев. Характеристика знойности погоды. Зависит от высоты солнца над горизонтом, облачности и скорости ветра. Ночью, в пасмурную погоду, а также при ветре 12 м/с и более поправка равна нулю.
P - Атмосферное давление - приведенное к уровню моря атмосферное давление.
Po - Атмосферное давление - измеренное на уровне метеостанции атмосферное давление.
Tmin - Минимальная температура - минимум температуры воздуха на высоте 2 м над землей.
Tmax - Максимальная температура - максимум температуры воздуха на высоте 2 м над землей.
R - Количество осадков - Количество выпавших осадков, мм. При наведении курсора мыши на число - период времени, за который выпало указанное количество осадков.
S - Снежный покров - Высота снежного покрова, см. При наведении курсора мыши на число - состояние снежного покрова и степень покрытия местности в баллах.